Regional Weather Roundup
Issued by NWS

Home | Current Version | Previous Version | Text Only | Print | Product List | Glossary On
Versions: 1 2 3 4 5 6 7 8 9 10 11 12 13 14 15 16 17 18 19 20 21 22 23 24 25 26 27 28 29 30 31 32 33 34 35 36 37 38 39 40 41 42 43 44 45 46 47 48 49 50
000
ASUS43 KMKX 261721
RWRWI

WISCONSIN REGIONAL WEATHER ROUNDUP
NATIONAL WEATHER SERVICE MILWAUKEE/SULLIVAN WI
1200 PM CDT MON JUN 26 2017

NOTE: "FAIR" INDICATES FEW OR NO CLOUDS BELOW 12,000 FEET WITH NO
SIGNIFICANT WEATHER AND/OR OBSTRUCTIONS TO VISIBILITY.

WIZ001-002-006>008-014>016-023>028-261800-
NORTHWEST WISCONSIN

CITY           SKY/WX    TMP DP  RH WIND       PRES   REMARKS
SUPERIOR ARPT  NOT AVBL
ASHLAND        MOSUNNY   62  50  64 VRB7      30.11F
HAYWARD        MOSUNNY   61  45  55 VRB6      30.13F
SIREN          PTSUNNY   64  44  47 N10       30.15S
CUMBERLAND     PTSUNNY   61  43  51 N12       30.15S
RICE LAKE      CLOUDY    60  44  55 N6        30.16S
CHETEK         PTSUNNY   61  47  59 NW8       30.15S
LADYSMITH      PTSUNNY   59  46  63 N13G18    30.15S
EAU CLAIRE     PTSUNNY   63  44  50 NW17      30.13S
MENOMONIE      PTSUNNY   64  45  49 W14       30.14F
NEW RICHMOND   MOSUNNY   65  41  41 NW10G16   30.16F
OSCEOLA        MOSUNNY   65  43  44 NW7       30.19S
$$

WIZ003>005-009-010-017-018-261800-
NORTH CENTRAL WISCONSIN

CITY           SKY/WX    TMP DP  RH WIND       PRES   REMARKS
MANITOWISH WTR CLOUDY    51  49  95 N9        30.10R
ARBOR VITAE    LGT RAIN  52  49  89 N12G21    30.08R
WOODRUFF       LGT RAIN  52  49  89 N12G21    30.08R
RHINELANDER    CLOUDY    51  48  89 N8        30.07S
EAGLE RIVER    CLOUDY    50  48  90 N14       30.06R
LAND O LAKES   CLOUDY    55  46  71 N16G22    30.08R
PHILLIPS       PTSUNNY   57  46  67 N9        30.11S
TOMAHAWK       NOT AVBL
MEDFORD        CLOUDY    53  45  74 NW16      30.10S
MERRILL        CLOUDY    53  46  76 N9G22     30.09R
$$

WIZ029-030-035-036-043>047-261800-
CENTRAL WISCONSIN

CITY           SKY/WX    TMP DP  RH WIND       PRES   REMARKS
WAUSAU         CLOUDY    54  43  66 NW16G25   30.06S
MOSINEE        CLOUDY    54  46  76 NW13G23   30.09S
MARSHFIELD     CLOUDY    55  45  68 NW15G25   30.10R
STEVENS POINT  CLOUDY    53  42  67 NW10G17   30.09S
WAUPACA        CLOUDY    59  44  57 NW10G20   30.06F
WAUTOMA        CLOUDY    57  45  64 NW17G23   30.09F
WISC RAPIDS    CLOUDY    57  44  62 NW12G20   30.11R
CAMP DOUGLAS   PTSUNNY   59  46  63 NW13G21   30.11S
$$

WIZ011>013-019>022-031-037>040-048>050-261800-
NORTHEAST WISCONSIN

CITY           SKY/WX    TMP DP  RH WIND       PRES   REMARKS
ANTIGO         CLOUDY    52  46  82 NW13      30.05S
SHAWANO        CLOUDY    56  48  72 NW12      30.04S
OCONTO         CLOUDY    55  47  77 W14       30.01S
STURGEON BAY     N/A     56  47  71 W12         N/A
GREEN BAY      CLOUDY    54  47  77 W16G24    30.04S
MANITOWOC      CLOUDY    56  44  64 NW14      30.03F
APPLETON       PTSUNNY   55  41  58 W15G21    30.04S
CLINTONVILLE   LGT RAIN  55  43  62 NW12G21   30.05S
OSHKOSH        CLOUDY    57  45  64 W14G28    30.05S
$$

WIZ032>034-041-042-053>061-261800-
SOUTHWEST WISCONSIN

CITY           SKY/WX    TMP DP  RH WIND       PRES   REMARKS
LA CROSSE      PTSUNNY   70  45  40 NW14      30.14F
SPARTA         CLOUDY    61  45  55 NW15G21   30.14S
VIROQUA        MOSUNNY   62  45  54 NW15      30.15S
BOSCOBEL       MOSUNNY   68  43  40 NW13G23   30.15S
PRAIRIE DU CHI PTSUNNY   64  41  42 NW13      30.14F
PLATTEVILLE    MOSUNNY   65  46  50 W13G18    30.14S
$$

WIZ056-057-062-063-064-067-068-261800-
SOUTH CENTRAL WISCONSIN

CITY           SKY/WX    TMP DP  RH WIND       PRES   REMARKS
REEDSBURG      PTSUNNY   61  44  52 NW15G22   30.12S
BARABOO/DELLS  PTSUNNY   61  42  49 NW10G16   30.11F
LONE ROCK      MOSUNNY   65  42  43 NW15G23   30.12F
MINERAL POINT  MOSUNNY   64  45  48 NW15G24   30.13S
MADISON        PTSUNNY   62  45  53 NW12G20   30.10S
MIDDLETON      PTSUNNY   62  46  54 W14G22    30.11S
WATERTOWN      NOT AVBL
MONROE         PTSUNNY   63  41  45 NW17G26   30.11S
JANESVILLE     PTSUNNY   70  43  37 W21       30.09F
$$

WIZ051-052-058>065-066-070>072-261800-
SOUTHEAST WISCONSIN

CITY           SKY/WX    TMP DP  RH WIND       PRES   REMARKS
MILWAUKEE      PTSUNNY   67  42  40 W17G29    30.06F
WAUKESHA       MOSUNNY   61  45  55 W17G24    30.08F
MILWAUKEE/TIMM PTSUNNY   63  39  42 W21G29    30.06F
RACINE         MOSUNNY   68  43  40 W21G31    30.07F
KENOSHA        MOSUNNY   67  45  45 W17G25    30.07F
FOND DU LAC    CLOUDY    57  44  62 NW16      30.07R
SHEBOYGAN      CLOUDY    58  46  64 NW15G24   30.04S
WEST BEND      PTSUNNY   59  41  51 W21G29    30.05F
JUNEAU         PTSUNNY   60  43  54 W9G20     30.08F
$$

LSZ147-162-261800-
LAKE SUPERIOR

STATION/POSITION TIME  TEMP    WIND        PRES    WAVE
                       AIR SEA DIR/SP/G            HT/PER
                 (UTC) (F)     (DEG/KT/KT) (MB)    (FT/S)
W MID LAKE BUOY  1650   44 39  250/  8/ 10 1018.9R   1/ 3
DEVILS ISLAND    1700   53     230/ 12/ 13 1019.4F
SAXON HARBOR     1540   54     320/  5/  8 1019.6R
$$

LMZ867-665-643>646-261800-
LAKE MICHIGAN

STATION/POSITION TIME  TEMP    WIND        PRES    WAVE
                       AIR SEA DIR/SP/G            HT/PER
                 (UTC) (F)     (DEG/KT/KT) (MB)    (FT/S)
CHAMBERS ISLAND  1640   58     260/  3/  8 1015.2S
S GREEN BAY BUOY 1700   56     300/ 14/ 17 1016.0
N MID LAKE BUOY  1650   54 55  280/  8/  8 1015.5R   1/ 4
NORTHPORT PIER   1640   56     300/  7/ 14 1015.2S
KEWAUNEE LAKESHO 1700   55     280/ 10/ 14 1016.0
SHEBOYGAN LAKESH 1700   58     290/ 17/ 21 1016.9S
PORT WASHINGTON  1640   63     290/ 14/ 20 1017.9F
ATWATER BUOY     1609   61 57  270/ 16/ 17 1017.7F
MILWAUKEE LAKESH 1700   63     290/ 14/ 22   N/A
S MID LAKE BUOY  1650   61 61  290/ 12/ 12 1018.0F   2/ 4
KENOSHA   LAKESH 1700   65     300/ 17/ 24 1017.6
$$

TC  - TEMPERATURE IN CELSIUS
VSB - VISIBILITY IN STATUTE MILES
WCI - WIND CHILL INDEX
HX  - HEAT INDEX





USA.gov is the U.S. government's official web portal to all federal, state and local government web resources and services.